LGX37B GCLP-GMMI

Flight info

Callsign LGX37B
Flight time N/A
Altitude 36000
Route KORAL UG5 NISUR
Aircraft B38M/M-SDE1FGHILORVWXY/HB1

Departure

Time 2026-04-30 14:40
Airport Gran Canaria Airport (GCLP)

Arrival

Time N/A
Airport Essaouira-Mogador Airport (GMMI)
Time Latitude Longitude Altitude Speed Heading
2026-04-30 14:32 27.93923 -15.38606 45 ft 0 kts 294°
2026-04-30 14:37 27.93934 -15.38617 44 ft 4 kts 334°
2026-04-30 14:37 27.93963 -15.38604 43 ft 6 kts 32°
2026-04-30 14:37 27.94001 -15.38577 43 ft 8 kts 32°
2026-04-30 14:38 27.94022 -15.38516 43 ft 10 kts 74°
2026-04-30 14:38 27.94073 -15.38459 42 ft 13 kts 21°
2026-04-30 14:38 27.94187 -15.38408 40 ft 22 kts 21°
2026-04-30 14:38 27.94355 -15.38332 37 ft 28 kts 24°
2026-04-30 14:39 27.94478 -15.38177 33 ft 23 kts 65°
2026-04-30 14:39 27.94368 -15.38137 34 ft 29 kts 200°
2026-04-30 14:39 27.93958 -15.38318 44 ft 98 kts 201°
2026-04-30 14:40 27.92092 -15.39152 756 ft 162 kts 201°
2026-04-30 14:40 27.91028 -15.39653 1459 ft 172 kts 200°
2026-04-30 14:40 27.89860 -15.40175 2081 ft 189 kts 199°
2026-04-30 14:40 27.88571 -15.40738 2645 ft 208 kts 200°
2026-04-30 14:41 27.87170 -15.41345 3254 ft 224 kts 200°
2026-04-30 14:41 27.85660 -15.42000 3808 ft 241 kts 200°
2026-04-30 14:41 27.84044 -15.42706 4300 ft 256 kts 201°
2026-04-30 14:41 27.82308 -15.43362 4760 ft 270 kts 189°
2026-04-30 14:42 27.80424 -15.43356 5396 ft 275 kts 166°
2026-04-30 14:42 27.78778 -15.42343 6003 ft 278 kts 134°
2026-04-30 14:42 27.77850 -15.40454 6581 ft 280 kts 101°
2026-04-30 14:42 27.77937 -15.38262 7122 ft 283 kts 71°
2026-04-30 14:43 27.78922 -15.36351 7669 ft 284 kts 50°
2026-04-30 14:43 27.80193 -15.34621 8180 ft 288 kts 47°
2026-04-30 14:43 27.81537 -15.32921 8719 ft 292 kts 46°
2026-04-30 14:43 27.82902 -15.31192 9641 ft 296 kts 47°
2026-04-30 14:44 27.84273 -15.29411 10547 ft 306 kts 47°
2026-04-30 14:44 27.85700 -15.27522 11143 ft 325 kts 48°
2026-04-30 14:44 27.87198 -15.25528 11700 ft 342 kts 48°
2026-04-30 14:44 27.88783 -15.23423 12220 ft 360 kts 47°
2026-04-30 14:45 27.90450 -15.21220 12781 ft 374 kts 47°
2026-04-30 14:45 27.92158 -15.18963 13566 ft 381 kts 47°
2026-04-30 14:45 27.93893 -15.16670 14379 ft 386 kts 47°
2026-04-30 14:45 27.95653 -15.14341 15176 ft 391 kts 47°
2026-04-30 14:46 27.97430 -15.11986 15945 ft 396 kts 46°
2026-04-30 14:46 27.99228 -15.09603 16663 ft 400 kts 46°
2026-04-30 14:46 28.01048 -15.07194 17351 ft 405 kts 45°
2026-04-30 14:46 28.02890 -15.04751 18011 ft 409 kts 45°
2026-04-30 14:47 28.04746 -15.02286 18673 ft 414 kts 45°
2026-04-30 14:47 28.06619 -14.99796 19304 ft 417 kts 45°
2026-04-30 14:47 28.08484 -14.97316 19909 ft 421 kts 45°
2026-04-30 14:47 28.10394 -14.94778 20510 ft 425 kts 45°
2026-04-30 14:48 28.12317 -14.92222 21093 ft 428 kts 45°
2026-04-30 14:48 28.14254 -14.89645 21667 ft 431 kts 44°
2026-04-30 14:48 28.16206 -14.87044 22221 ft 435 kts 44°
2026-04-30 14:48 28.18175 -14.84417 22760 ft 438 kts 44°
2026-04-30 14:49 28.20154 -14.81775 23285 ft 441 kts 44°
2026-04-30 14:49 28.22152 -14.79111 23791 ft 444 kts 44°
2026-04-30 14:49 28.24159 -14.76432 24288 ft 447 kts 44°
2026-04-30 14:49 28.26179 -14.73733 24795 ft 450 kts 44°
2026-04-30 14:50 28.30253 -14.68282 25763 ft 456 kts 43°
2026-04-30 14:50 28.32308 -14.65530 26220 ft 458 kts 43°
2026-04-30 14:51 28.36460 -14.59968 27089 ft 463 kts 43°
2026-04-30 14:51 28.38550 -14.57163 27516 ft 466 kts 43°
2026-04-30 14:51 28.42753 -14.51517 28304 ft 470 kts 43°
2026-04-30 14:52 28.44844 -14.48706 28669 ft 473 kts 43°
2026-04-30 14:52 28.49111 -14.42966 29404 ft 477 kts 42°
2026-04-30 14:52 28.51261 -14.40071 29755 ft 479 kts 42°
2026-04-30 14:53 28.55577 -14.34252 30483 ft 482 kts 42°
2026-04-30 14:53 28.57707 -14.31371 30908 ft 481 kts 42°
2026-04-30 14:54 28.62018 -14.25542 31760 ft 480 kts 42°
2026-04-30 14:54 28.66322 -14.19722 32592 ft 479 kts 41°
2026-04-30 14:55 28.70601 -14.13924 33411 ft 477 kts 41°
2026-04-30 14:55 28.72734 -14.11030 33796 ft 476 kts 41°
2026-04-30 14:55 28.76990 -14.05254 34547 ft 476 kts 41°
2026-04-30 14:56 28.81220 -13.99498 35263 ft 476 kts 41°
2026-04-30 14:56 28.85453 -13.93729 36060 ft 472 kts 41°
2026-04-30 14:57 28.87576 -13.90841 36118 ft 477 kts 41°
2026-04-30 14:58 28.96153 -13.79125 36147 ft 481 kts 41°
2026-04-30 14:58 29.02581 -13.70332 36152 ft 480 kts 41°
2026-04-30 15:00 29.13217 -13.55729 36146 ft 477 kts 41°
2026-04-30 15:01 29.21297 -13.43586 36133 ft 485 kts 49°
2026-04-30 15:01 29.26957 -13.34056 36146 ft 481 kts 46°
2026-04-30 15:02 29.30857 -13.27834 36134 ft 481 kts 46°
2026-04-30 15:03 29.40401 -13.12080 36139 ft 480 kts 46°
2026-04-30 15:04 29.49924 -12.96374 36127 ft 480 kts 46°
2026-04-30 15:06 29.59412 -12.80673 36123 ft 478 kts 47°
2026-04-30 15:07 29.66963 -12.68133 36114 ft 476 kts 46°
2026-04-30 15:08 29.74475 -12.55612 36112 ft 475 kts 47°
2026-04-30 15:09 29.83729 -12.39935 36106 ft 473 kts 47°
2026-04-30 15:10 29.91121 -12.27400 36095 ft 473 kts 47°
2026-04-30 15:11 30.02317 -12.08328 36080 ft 484 kts 48°
2026-04-30 15:12 30.08847 -11.99788 36080 ft 473 kts 37°
2026-04-30 15:13 30.13225 -11.94008 36082 ft 483 kts 44°
2026-04-30 15:14 30.27466 -11.74124 36071 ft 483 kts 43°
2026-04-30 15:17 30.46752 -11.47333 36086 ft 478 kts 42°
2026-04-30 15:19 30.63739 -11.23628 36070 ft 477 kts 43°